• în Republica Moldova
  • Lista ţărilor
  • Pe 7 zile
  • Temperatura apei
  • Hartă satelitară
  • Meteo pe hartă
  • Widget-uri
  • user-avatar
    Intrare

    Meteo pe oră la Kerns

    Astăzi, 28 Martie, Marţi

    Timp Temperatura Precipitaţii Vânt Presiune Umiditate
    00:00 +28°C° 0 mm 2 m/s 754 mmHg 89%
    01:00 +28°C° 0 mm 3 m/s 753 mmHg 88%
    02:00 +28°C° 0 mm 3 m/s 753 mmHg 87%
    03:00 +28°C° 0 mm 3 m/s 753 mmHg 86%
    04:00 +28°C° 0 mm 4 m/s 753 mmHg 84%
    05:00 +28°C° 0 mm 4 m/s 753 mmHg 83%
    06:00 +28°C° 0 mm 4 m/s 753 mmHg 82%
    07:00 +28°C° 0 mm 5 m/s 753 mmHg 81%
    08:00 +30°C° 0 mm 4 m/s 753 mmHg 74%
    09:00 +33°C° 0 mm 4 m/s 753 mmHg 66%
    10:00 +35°C° 0 mm 3 m/s 753 mmHg 59%
    11:00 +36°C° 0 mm 3 m/s 753 mmHg 56%
    12:00 +37°C° 0 mm 3 m/s 752 mmHg 53%
    13:00 +38°C° 0 mm 3 m/s 752 mmHg 51%
    14:00 +37°C° 0 mm 3 m/s 752 mmHg 53%
    15:00 +37°C° 0 mm 4 m/s 751 mmHg 56%
    16:00 +36°C° 0 mm 4 m/s 751 mmHg 58%
    17:00 +35°C° 0,1 mm 4 m/s 751 mmHg 64%
    18:00 +33°C° 0,1 mm 4 m/s 751 mmHg 69%
    19:00 +32°C° 0,1 mm 4 m/s 751 mmHg 75%
    20:00 +30°C° 0,1 mm 4 m/s 752 mmHg 76%
    21:00 +30°C° 0,1 mm 4 m/s 752 mmHg 77%
    22:00 +29°C° 0,1 mm 4 m/s 753 mmHg 78%
    23:00 +29°C° 0,2 mm 4 m/s 753 mmHg 80%

    Mâine, 29 Martie, Miercuri

    Timp Temperatura Precipitaţii Vânt Presiune Umiditate
    00:00 +29°C° 0,2 mm 4 m/s 752 mmHg 82%
    01:00 +29°C° 0,2 mm 4 m/s 752 mmHg 84%
    02:00 +29°C° 0,1 mm 4 m/s 752 mmHg 85%
    03:00 +29°C° 0,1 mm 4 m/s 752 mmHg 86%
    04:00 +29°C° 0,1 mm 4 m/s 752 mmHg 88%
    05:00 +29°C° 0 mm 4 m/s 752 mmHg 88%
    06:00 +29°C° 0 mm 4 m/s 753 mmHg 88%
    07:00 +29°C° 0 mm 4 m/s 753 mmHg 88%
    08:00 +30°C° 0,1 mm 4 m/s 754 mmHg 80%
    09:00 +33°C° 0,1 mm 4 m/s 754 mmHg 72%
    10:00 +35°C° 0,1 mm 4 m/s 754 mmHg 64%
    11:00 +36°C° 0 mm 4 m/s 754 mmHg 58%
    12:00 +37°C° 0 mm 5 m/s 753 mmHg 53%
    13:00 +40°C° 0 mm 5 m/s 753 mmHg 47%
    14:00 +39°C° 0 mm 5 m/s 752 mmHg 48%
    15:00 +39°C° 0 mm 5 m/s 752 mmHg 50%
    16:00 +39°C° 0 mm 6 m/s 752 mmHg 51%
    17:00 +35°C° 0,1 mm 5 m/s 752 mmHg 61%
    18:00 +33°C° 0,1 mm 5 m/s 753 mmHg 72%
    19:00 +30°C° 0,1 mm 5 m/s 753 mmHg 82%
    20:00 +29°C° 0,1 mm 5 m/s 754 mmHg 85%
    21:00 +29°C° 0,1 mm 5 m/s 755 mmHg 88%
    22:00 +28°C° 0,1 mm 4 m/s 756 mmHg 91%
    23:00 +28°C° 0 mm 4 m/s 755 mmHg 90%

    Poimâine, 30 Martie, Joi

    Timp Temperatura Precipitaţii Vânt Presiune Umiditate
    00:00 +28°C° 0 mm 4 m/s 755 mmHg 90%
    01:00 +28°C° 0 mm 4 m/s 755 mmHg 89%
    02:00 +28°C° 0,1 mm 4 m/s 755 mmHg 91%
    03:00 +28°C° 0,1 mm 4 m/s 755 mmHg 93%
    04:00 +27°C° 0,1 mm 3 m/s 755 mmHg 95%
    05:00 +27°C° 0 mm 3 m/s 756 mmHg 94%
    06:00 +28°C° 0 mm 3 m/s 756 mmHg 94%
    07:00 +28°C° 0 mm 2 m/s 757 mmHg 94%
    08:00 +30°C° 0 mm 2 m/s 757 mmHg 82%
    09:00 +34°C° 0 mm 2 m/s 757 mmHg 71%
    10:00 +36°C° 0 mm 2 m/s 758 mmHg 59%
    11:00 +37°C° 0,1 mm 2 m/s 757 mmHg 55%
    12:00 +38°C° 0,1 mm 3 m/s 756 mmHg 52%
    13:00 +39°C° 0,1 mm 3 m/s 756 mmHg 48%
    14:00 +38°C° 0,3 mm 3 m/s 755 mmHg 54%
    15:00 +37°C° 0,3 mm 3 m/s 755 mmHg 60%
    16:00 +36°C° 0,3 mm 3 m/s 755 mmHg 66%
    17:00 +34°C° 0 mm 3 m/s 755 mmHg 74%
    18:00 +31°C° 0 mm 3 m/s 756 mmHg 83%
    19:00 +29°C° 0 mm 3 m/s 756 mmHg 91%
    20:00 +29°C° 0 mm 3 m/s 757 mmHg 92%
    21:00 +28°C° 0 mm 3 m/s 757 mmHg 94%
    22:00 +27°C° 0 mm 3 m/s 758 mmHg 95%
    23:00 +27°C° 0,1 mm 3 m/s 757 mmHg 95%

    31 Martie, Vineri

    Timp Temperatura Precipitaţii Vânt Presiune Umiditate
    00:00 +27°C° 0,1 mm 2 m/s 757 mmHg 95%
    01:00 +26°C° 0,1 mm 2 m/s 757 mmHg 95%
    02:00 +26°C° 0 mm 2 m/s 756 mmHg 95%
    03:00 +26°C° 0 mm 2 m/s 756 mmHg 94%
    04:00 +26°C° 0 mm 1 m/s 756 mmHg 94%
    05:00 +27°C° 0,2 mm 1 m/s 756 mmHg 91%
    06:00 +27°C° 0,2 mm 1 m/s 757 mmHg 88%
    07:00 +28°C° 0,2 mm 1 m/s 757 mmHg 85%
    08:00 +30°C° 0,6 mm 1 m/s 758 mmHg 76%
    09:00 +32°C° 0,6 mm 1 m/s 758 mmHg 68%
    10:00 +35°C° 0,6 mm 1 m/s 758 mmHg 59%
    11:00 +36°C° 0,2 mm 2 m/s 757 mmHg 57%
    12:00 +37°C° 0,2 mm 2 m/s 757 mmHg 56%
    13:00 +37°C° 0,2 mm 2 m/s 756 mmHg 55%
    14:00 +36°C° 0,2 mm 2 m/s 756 mmHg 58%
    15:00 +36°C° 0,2 mm 2 m/s 756 mmHg 61%
    16:00 +35°C° 0,2 mm 2 m/s 755 mmHg 64%
    17:00 +32°C° 0 mm 2 m/s 756 mmHg 73%
    18:00 +30°C° 0 mm 2 m/s 756 mmHg 82%
    19:00 +28°C° 0 mm 1 m/s 757 mmHg 91%
    20:00 +28°C° 0 mm 1 m/s 757 mmHg 93%
    21:00 +28°C° 0 mm 1 m/s 758 mmHg 96%
    22:00 +27°C° 0 mm 1 m/s 758 mmHg 98%
    23:00 +27°C° 0 mm 1 m/s 758 mmHg 98%

    1 Aprilie, Sâmbătă

    Timp Temperatura Precipitaţii Vânt Presiune Umiditate
    00:00 +27°C° 0 mm 1 m/s 758 mmHg 97%
    01:00 +27°C° 0 mm 1 m/s 757 mmHg 97%
    02:00 +27°C° 0 mm 2 m/s 757 mmHg 97%
    03:00 +26°C° 0 mm 2 m/s 757 mmHg 96%
    04:00 +26°C° 0 mm 2 m/s 757 mmHg 96%
    05:00 +26°C° 0 mm 2 m/s 757 mmHg 95%
    06:00 +26°C° 0 mm 3 m/s 758 mmHg 95%
    07:00 +26°C° 0 mm 3 m/s 758 mmHg 94%
    08:00 +28°C° 0 mm 3 m/s 758 mmHg 87%
    09:00 +30°C° 0 mm 4 m/s 759 mmHg 80%
    10:00 +32°C° 0 mm 4 m/s 759 mmHg 73%
    11:00 +33°C° 0,1 mm 4 m/s 758 mmHg 72%
    12:00 +33°C° 0,1 mm 4 m/s 758 mmHg 70%
    13:00 +34°C° 0,1 mm 5 m/s 757 mmHg 69%
    14:00 +33°C° 0,3 mm 5 m/s 757 mmHg 73%
    15:00 +32°C° 0,3 mm 5 m/s 757 mmHg 78%
    16:00 +30°C° 0,3 mm 5 m/s 756 mmHg 83%
    17:00 +29°C° 0,3 mm 5 m/s 757 mmHg 86%
    18:00 +29°C° 0,3 mm 5 m/s 758 mmHg 89%
    19:00 +28°C° 0,3 mm 4 m/s 758 mmHg 92%
    20:00 +27°C° 0,2 mm 4 m/s 758 mmHg 93%
    21:00 +27°C° 0,2 mm 4 m/s 759 mmHg 95%
    22:00 +26°C° 0,2 mm 4 m/s 759 mmHg 96%
    23:00 +26°C° 0 mm 4 m/s 759 mmHg 95%

    2 Aprilie, Duminică

    Timp Temperatura Precipitaţii Vânt Presiune Umiditate
    00:00 +25°C° 0 mm 4 m/s 758 mmHg 95%
    01:00 +25°C° 0 mm 4 m/s 758 mmHg 95%
    02:00 +23°C° 0 mm 4 m/s 758 mmHg 94%
    03:00 +23°C° 0 mm 4 m/s 758 mmHg 94%
    04:00 +22°C° 0 mm 5 m/s 758 mmHg 94%
    05:00 +22°C° 0 mm 5 m/s 758 mmHg 92%
    06:00 +22°C° 0 mm 5 m/s 759 mmHg 91%
    07:00 +22°C° 0 mm 5 m/s 759 mmHg 89%
    08:00 +25°C° 0 mm 5 m/s 759 mmHg 82%
    09:00 +28°C° 0 mm 5 m/s 759 mmHg 75%
    10:00 +30°C° 0 mm 5 m/s 759 mmHg 68%
    11:00 +32°C° 0,1 mm 6 m/s 759 mmHg 66%
    12:00 +32°C° 0,1 mm 6 m/s 758 mmHg 64%
    13:00 +33°C° 0,1 mm 6 m/s 758 mmHg 62%
    14:00 +33°C° 0 mm 6 m/s 758 mmHg 63%
    15:00 +33°C° 0 mm 6 m/s 758 mmHg 64%
    16:00 +32°C° 0 mm 7 m/s 757 mmHg 64%
    17:00 +30°C° 0 mm 6 m/s 758 mmHg 72%
    18:00 +28°C° 0 mm 6 m/s 759 mmHg 80%
    19:00 +26°C° 0 mm 5 m/s 759 mmHg 88%
    20:00 +26°C° 0,1 mm 5 m/s 759 mmHg 90%
    21:00 +26°C° 0,1 mm 5 m/s 760 mmHg 91%
    22:00 +26°C° 0,1 mm 5 m/s 760 mmHg 93%
    23:00 +26°C° 0,1 mm 5 m/s 760 mmHg 93%
    Arată mai mult